Location: Elma
(49.8670°N, 95.9170°W)
Time: 11:07:36
(UTC-05:00)

Envisat - Visible Passes

Search period start: 18 March 2019 00:00
Search period end: 28 March 2019 00:00
Orbit: 764 x 766 km, 98.2° (Epoch: 18 March)

Date Brightness Start Highest point End Pass type
(mag) Time Alt. Az. Time Alt. Az. Time Alt. Az.
18 Mar 5.7 21:11:12 10° SW 21:14:55 20° W 21:18:40 10° NW visible
19 Mar 4.5 20:33:04 10° SSW 20:37:50 40° W 20:42:37 10° NNW visible
20 Mar 6.1 21:38:48 10° WSW 21:40:49 12° W 21:42:50 10° WNW visible
21 Mar 5.4 20:59:27 10° SSW 21:03:35 25° W 21:07:44 10° NW visible
22 Mar 4.1 20:21:39 10° S 20:26:33 49° W 20:31:30 10° NNW visible
23 Mar 5.9 21:26:31 10° WSW 21:29:26 15° W 21:32:22 10° NW visible
24 Mar 5.1 20:47:49 10° SSW 20:52:16 30° W 20:56:44 10° NNW visible
25 Mar 3.7 20:10:17 10° S 20:15:18 60° W 20:20:21 10° NNW visible
26 Mar 5.8 21:14:32 10° SW 21:18:04 19° W 21:21:38 10° NW visible
27 Mar 4.7 20:36:17 10° SSW 20:40:58 37° W 20:45:40 10° NNW visible
